Home > Weather > Hingoli > Past weeks

Flag for India Past Weather in Hingoli, Maharashtra, India — Yesterday and Last 2 Weeks

Now
84 °F

Thunderstorms. Scattered clouds.


Feels Like: 91 °F
Forecast: 76 / 85 °F
Wind: 14 mph from Northwest

Location: Nagpur Sonegaon

Current Time: Jun 27, 2016 at 4:49:58 PM

Latest Report: Jun 27, 2016 at 4:30 PM


Visibility: 3 mi

Pressure: 29.53 "Hg

Humidity: 70%

Dew Point: 73 °F

Location of HingoliLocation

Past Weather in Hingoli — Graph

°F

Hingoli Temperature Yesterday

Maximum temperature yesterday: 100 °F (at 3:30 PM)
Minimum temperature yesterday: 79 °F (at 10:30 PM)
Average temperature yesterday: 86 °F

High & Low Weather Summary for the Past Weeks

 TemperatureHumidityPressure
High108 °F (Jun 12, 4:30 PM)100% (Jun 23, 4:00 AM)29.77 "Hg (Jun 23, 4:00 AM)
Low70 °F (Jun 23, 4:00 AM)15% (Jun 26, 3:30 PM)29.47 "Hg (Jun 16, 4:00 PM)
Average90 °F56%29.63 "Hg
* Reported Jun 12 3:30 PM — Jun 27 3:30 PM, Hingoli, Weather by CustomWeather, © 2016

Note: Actual official high and low records may vary slightly from our data, if they occured in-between our weather recording intervals... More about our weather records

Advertising

Hingoli Weather History for the Previous 24 Hours

Scroll right to see more
 ConditionsComfort  
Time TempWeatherWind HumidityBarometerVisibility
3:30 PM
Mon, Jun 27
97 °FScattered clouds.3 mph53%29.53 "Hg3 mi
3:00 PM95 °FScattered clouds.3 mph56%29.53 "Hg3 mi
2:30 PM93 °FScattered clouds.8 mph59%29.53 "Hg3 mi
2:00 PM93 °FScattered clouds.7 mph59%29.56 "Hg3 mi
1:30 PM93 °FScattered clouds.8 mph59%29.56 "Hg3 mi
1:00 PM95 °FScattered clouds.3 mph56%29.59 "Hg3 mi
12:00 PM91 °FScattered clouds.3 mph63%29.62 "Hg3 mi
11:30 AM91 °FScattered clouds.6 mph63%29.65 "Hg2 mi
11:00 AM90 °FHaze.5 mph67%29.65 "Hg2 mi
10:30 AM88 °FHaze.3 mph70%29.65 "Hg2 mi
10:00 AM86 °FScattered clouds.2 mph75%29.65 "Hg2 mi
9:30 AM86 °FPartly sunny.3 mph75%29.65 "Hg2 mi
9:00 AM84 °FPartly sunny.2 mph79%29.65 "Hg2 mi
8:30 AM82 °FPartly sunny.2 mph84%29.65 "Hg2 mi
8:00 AM82 °FPartly sunny.No wind84%29.65 "Hg2 mi
7:30 AM81 °FPartly sunny.No wind89%29.65 "Hg2 mi
7:00 AM81 °FPartly sunny.No wind89%29.65 "Hg2 mi
6:30 AM81 °FScattered clouds.No wind89%29.65 "Hg2 mi
6:00 AM81 °FPassing clouds.No wind84%29.62 "Hg2 mi
5:30 AM79 °FPassing clouds.3 mph94%29.62 "Hg2 mi
5:00 AM79 °FPassing clouds.2 mph94%29.62 "Hg2 mi
4:00 AM79 °FPassing clouds.No wind94%29.62 "Hg2 mi
3:30 AM79 °FPartly cloudy.2 mph94%29.62 "Hg2 mi
3:00 AM79 °FPartly cloudy.2 mph94%29.62 "Hg2 mi
2:30 AM79 °FPartly cloudy.3 mph94%29.62 "Hg2 mi
2:00 AM77 °FPartly cloudy.3 mph94%29.62 "Hg2 mi
1:30 AM79 °FPartly cloudy.3 mph94%29.62 "Hg2 mi
12:30 AM79 °FPartly cloudy.6 mph94%29.62 "Hg2 mi
12:00 AM79 °FPartly cloudy.3 mph94%29.65 "Hg1 mi
11:30 PM
Sun, Jun 26
79 °FPartly cloudy.6 mph94%29.65 "Hg1 mi
11:00 PM79 °FRain. Partly cloudy.3 mph94%29.71 "Hg1 mi
10:30 PM79 °FThunderstorms. Partly cloudy.2 mph94%29.71 "Hg1 mi
10:00 PM81 °FThunderstorms. Partly cloudy.7 mph84%29.71 "Hg1 mi
9:30 PM81 °FThunderstorms. Passing clouds.10 mph79%29.71 "Hg1 mi
9:00 PM81 °FThunderstorms. Partly cloudy.7 mph84%29.71 "Hg1 mi
8:30 PM81 °FThunderstorms. Passing clouds.10 mph79%N/A2 mi
7:30 PM86 °FPartly cloudy.2 mph75%29.65 "Hg2 mi
6:30 PM86 °FBroken clouds.5 mph22%29.62 "Hg2 mi
4:30 PM84 °FThundershowers. Broken clouds.12 mph22%29.59 "Hg2 mi
4:00 PM86 °FThundershowers. Broken clouds.12 mph22%29.59 "Hg2 mi
Weather by CustomWeather, © 2016

See weather overviewHow to use our weather pages